| time (UTC) | temp C | wind direction | speed KPH | gust KPH | rain 1hr cm | rain 24hr cm | rain mn cm | humidity % | barometer mb |
| 20260508170003 | 10 | 299 | 11.3 | 20.9 | 0.00 | 0.61 | 0.13 | 39 | 1024.2 |
| 20260508165403 | 10 | 308 | 12.9 | 20.9 | 0.00 | 0.61 | 0.13 | 40 | 1024.2 |
| 20260508164503 | 10 | 306 | 11.3 | 17.7 | 0.00 | 0.61 | 0.13 | 36 | 1024.2 |
| 20260508163603 | 11 | 292 | 11.3 | 20.9 | 0.00 | 0.61 | 0.13 | 37 | 1024.0 |
| 20260508162703 | 11 | 298 | 11.3 | 20.9 | 0.00 | 0.61 | 0.13 | 36 | 1023.9 |
| 20260508161803 | 11 | 289 | 11.3 | 20.9 | 0.00 | 0.61 | 0.13 | 35 | 1023.9 |
| 20260508160924 | 11 | 290 | 11.3 | 19.3 | 0.00 | 0.61 | 0.13 | 33 | 1023.8 |
| 20260508160024 | 11 | 292 | 12.9 | 22.5 | 0.00 | 0.61 | 0.13 | 35 | 1023.7 |
| 20260508155425 | 11 | 305 | 12.9 | 25.7 | 0.00 | 0.61 | 0.13 | 36 | 1023.6 |
| 20260508154504 | 11 | 284 | 12.9 | 24.1 | 0.00 | 0.61 | 0.13 | 37 | 1023.5 |
| 20260508153604 | 11 | 292 | 12.9 | 20.9 | 0.00 | 0.61 | 0.13 | 37 | 1023.4 |
| 20260508152704 | 11 | 307 | 14.5 | 24.1 | 0.00 | 0.61 | 0.13 | 36 | 1023.4 |
| 20260508151804 | 11 | 296 | 11.3 | 27.4 | 0.00 | 0.61 | 0.13 | 37 | 1023.3 |
| 20260508150904 | 11 | 291 | 11.3 | 19.3 | 0.00 | 0.61 | 0.13 | 37 | 1023.3 |
| 20260508150005 | 11 | 314 | 9.7 | 19.3 | 0.00 | 0.61 | 0.13 | 41 | 1023.2 |
| 20260508145425 | 11 | 316 | 11.3 | 19.3 | 0.00 | 0.61 | 0.13 | 41 | 1023.3 |
| 20260508144504 | 11 | 292 | 9.7 | 19.3 | 0.00 | 0.61 | 0.13 | 42 | 1023.3 |
| 20260508143604 | 11 | 298 | 9.7 | 19.3 | 0.00 | 0.61 | 0.13 | 42 | 1023.3 |
| 20260508142704 | 11 | 298 | 9.7 | 19.3 | 0.00 | 0.61 | 0.13 | 43 | 1023.3 |
| 20260508141804 | 11 | 289 | 12.9 | 24.1 | 0.00 | 0.61 | 0.13 | 43 | 1023.3 |
| 20260508140904 | 11 | 304 | 6.4 | 22.5 | 0.00 | 0.61 | 0.13 | 42 | 1023.3 |
| 20260508140005 | 11 | 306 | 12.9 | 22.5 | 0.00 | 0.61 | 0.13 | 43 | 1023.2 |
| 20260508134504 | 11 | 315 | 16.1 | 27.4 | 0.00 | 0.61 | 0.13 | 43 | 1023.3 |
| 20260508133604 | 11 | 311 | 12.9 | 22.5 | 0.00 | 0.61 | 0.13 | 43 | 1023.4 |
| 20260508132725 | 10 | 297 | 8.0 | 22.5 | 0.00 | 0.61 | 0.13 | 42 | 1023.4 |
| 20260508131804 | 10 | 291 | 14.5 | 24.1 | 0.00 | 0.61 | 0.13 | 43 | 1023.5 |
| 20260508130904 | 11 | 313 | 11.3 | 24.1 | 0.00 | 0.61 | 0.13 | 43 | 1023.3 |
| 20260508130005 | 11 | 317 | 14.5 | 24.1 | 0.00 | 0.61 | 0.13 | 43 | 1023.3 |
| 20260508125404 | 11 | 301 | 12.9 | 20.9 | 0.00 | 0.61 | 0.13 | 45 | 1023.3 |
| 20260508124504 | 10 | 326 | 8.0 | 20.9 | 0.00 | 0.61 | 0.13 | 47 | 1023.3 |
| 20260508123604 | 10 | 309 | 8.0 | 16.1 | 0.00 | 0.61 | 0.13 | 47 | 1023.4 |
| 20260508122704 | 10 | 293 | 11.3 | 20.9 | 0.00 | 0.61 | 0.13 | 46 | 1023.5 |
| 20260508121804 | 11 | 291 | 6.4 | 20.9 | 0.00 | 0.64 | 0.13 | 48 | 1023.4 |
| 20260508120904 | 11 | 186 | 6.4 | 16.1 | 0.00 | 0.64 | 0.13 | 51 | 1023.4 |
| 20260508120004 | 11 | 184 | 4.8 | 14.5 | 0.00 | 0.66 | 0.13 | 51 | 1023.3 |
| 20260508115404 | 10 | 261 | 4.8 | 14.5 | 0.00 | 0.66 | 0.13 | 49 | 1023.3 |
| 20260508114504 | 10 | 277 | 6.4 | 16.1 | 0.00 | 0.66 | 0.13 | 52 | 1023.4 |
| 20260508113604 | 10 | 277 | 8.0 | 24.1 | 0.00 | 0.66 | 0.13 | 52 | 1023.5 |
| 20260508112704 | 10 | 199 | 6.4 | 16.1 | 0.00 | 0.66 | 0.13 | 56 | 1023.4 |
| 20260508111804 | 10 | 200 | 6.4 | 17.7 | 0.00 | 0.66 | 0.13 | 58 | 1023.6 |
| 20260508110904 | 9 | 198 | 6.4 | 19.3 | 0.00 | 0.66 | 0.13 | 63 | 1023.6 |
| 20260508110004 | 8 | 267 | 9.7 | 24.1 | 0.00 | 0.66 | 0.13 | 60 | 1023.5 |
| 20260508105404 | 9 | 279 | 12.9 | 24.1 | 0.00 | 0.66 | 0.13 | 56 | 1023.5 |
| 20260508104504 | 10 | 321 | 12.9 | 22.5 | 0.00 | 0.66 | 0.13 | 55 | 1023.1 |
| 20260508041804 | 1 | 281 | 4.8 | 9.7 | 0.05 | 0.58 | 0.05 | 94 | 1019.7 |
| 20260508040904 | 1 | 298 | 6.4 | 11.3 | 0.05 | 0.58 | 0.05 | 94 | 1019.3 |
| 20260508040004 | 1 | 301 | 4.8 | 11.3 | 0.00 | 0.51 | 0.00 | 94 | 1018.5 |
| 20260508035404 | 0 | 305 | 6.4 | 9.7 | 0.00 | 0.51 | 0.00 | 94 | 1017.1 |
| 20260508034504 | 0 | 302 | 4.8 | 11.3 | 0.00 | 0.51 | 0.00 | 94 | 1020.1 |
| 20260508033604 | 0 | 292 | 4.8 | 8.0 | 0.00 | 0.51 | 0.00 | 94 | 1019.6 |
| 20260508032725 | 0 | 283 | 6.4 | 11.3 | 0.00 | 0.51 | 0.00 | 94 | 1019.4 |
| 20260508031825 | 0 | 289 | 4.8 | 9.7 | 0.00 | 0.51 | 0.00 | 94 | 1019.4 |
| 20260508030904 | 0 | 295 | 4.8 | 11.3 | 0.00 | 0.51 | 0.00 | 94 | 1019.3 |
| 20260508030004 | 0 | 299 | 4.8 | 12.9 | 0.00 | 0.51 | 0.00 | 94 | 1019.3 |
| 20260508025404 | 0 | 289 | 4.8 | 8.0 | 0.00 | 0.51 | 0.00 | 94 | 1019.3 |
| 20260508024525 | 0 | 282 | 4.8 | 9.7 | 0.00 | 0.51 | 0.00 | 94 | 1019.2 |
| 20260508023604 | 0 | 293 | 4.8 | 9.7 | 0.00 | 0.51 | 0.00 | 94 | 1019.0 |
| 20260508022704 | -1 | 301 | 3.2 | 6.4 | 0.00 | 0.51 | 0.00 | 94 | 1019.0 |
| 20260508021804 | -1 | 296 | 3.2 | 6.4 | 0.00 | 0.51 | 0.00 | 93 | 1018.9 |
| 20260508020904 | -1 | 296 | 1.6 | 3.2 | 0.00 | 0.51 | 0.00 | 93 | 1018.9 |
| 20260508020004 | -1 | 296 | 1.6 | 4.8 | 0.00 | 0.51 | 0.00 | 93 | 1018.7 |
| 20260508015404 | -1 | 296 | 1.6 | 4.8 | 0.00 | 0.51 | 0.00 | 93 | 1018.6 |
| 20260508014504 | -1 | 296 | 3.2 | 4.8 | 0.00 | 0.51 | 0.00 | 93 | 1018.6 |
| 20260508013625 | 0 | 296 | 3.2 | 6.4 | 0.00 | 0.51 | 0.00 | 93 | 1018.6 |
| 20260508012704 | 0 | 307 | 3.2 | 6.4 | 0.00 | 0.51 | 0.00 | 94 | 1018.5 |
| 20260508011804 | 0 | 307 | 4.8 | 6.4 | 0.00 | 0.51 | 0.00 | 94 | 1018.4 |
| 20260508010904 | 0 | 303 | 4.8 | 9.7 | 0.00 | 0.51 | 0.00 | 94 | 1018.3 |
| 20260508010025 | 0 | 304 | 4.8 | 11.3 | 0.00 | 0.51 | 0.00 | 94 | 1018.2 |
| 20260508005404 | 0 | 298 | 4.8 | 11.3 | 0.00 | 0.51 | 0.00 | 94 | 1018.2 |
| 20260508004525 | 0 | 290 | 4.8 | 11.3 | 0.00 | 0.51 | 0.00 | 94 | 1018.2 |
| 20260508003604 | 0 | 290 | 4.8 | 9.7 | 0.00 | 0.51 | 0.00 | 93 | 1018.0 |
| 20260508002704 | 0 | 302 | 4.8 | 9.7 | 0.00 | 0.51 | 0.00 | 94 | 1018.1 |
| 20260508001825 | 0 | 306 | 4.8 | 6.4 | 0.00 | 0.51 | 0.00 | 94 | 1018.0 |
| 20260508000925 | 0 | 307 | 4.8 | 8.0 | 0.00 | 0.51 | 0.00 | 93 | 1017.9 |
| 20260508000004 | 0 | 316 | 4.8 | 8.0 | 0.00 | 0.51 | 0.00 | 93 | 1017.8 |
| 20260507235404 | 0 | 319 | 4.8 | 8.0 | 0.00 | 0.51 | 0.00 | 93 | 1017.8 |
| 20260507234525 | 0 | 308 | 6.4 | 11.3 | 0.00 | 0.51 | 0.00 | 93 | 1017.7 |
| 20260507233625 | 0 | 304 | 6.4 | 12.9 | 0.00 | 0.51 | 0.00 | 93 | 1017.6 |
| 20260507232726 | 0 | 296 | 6.4 | 12.9 | 0.00 | 0.51 | 0.00 | 93 | 1017.5 |
| 20260507231825 | 0 | 296 | 6.4 | 11.3 | 0.00 | 0.51 | 0.00 | 94 | 1017.4 |
| 20260507230904 | 0 | 292 | 4.8 | 11.3 | 0.00 | 0.51 | 0.00 | 93 | 1017.4 |
| 20260507230004 | 0 | 286 | 4.8 | 6.4 | 0.00 | 0.51 | 0.00 | 93 | 1017.4 |
| 20260507225425 | 0 | 286 | 4.8 | 9.7 | 0.00 | 0.51 | 0.00 | 93 | 1017.3 |
| 20260507224504 | 0 | 283 | 4.8 | 6.4 | 0.00 | 0.51 | 0.00 | 93 | 1017.1 |
| 20260507223624 | 0 | 308 | 3.2 | 6.4 | 0.00 | 0.51 | 0.00 | 93 | 1017.0 |
| 20260507222704 | 0 | 308 | 4.8 | 6.4 | 0.00 | 0.51 | 0.00 | 93 | 1017.0 |
| 20260507221824 | 0 | 308 | 4.8 | 8.0 | 0.00 | 0.51 | 0.00 | 93 | 1016.9 |
| 20260507220904 | 0 | 313 | 4.8 | 6.4 | 0.00 | 0.51 | 0.00 | 93 | 1016.8 |
| 20260507220004 | 0 | 315 | 3.2 | 6.4 | 0.00 | 0.51 | 0.00 | 93 | 1016.6 |
| 20260507215425 | 0 | 315 | 4.8 | 6.4 | 0.00 | 0.51 | 0.00 | 93 | 1016.6 |
| 20260507214503 | 0 | 315 | 3.2 | 6.4 | 0.00 | 0.51 | 0.00 | 93 | 1016.5 |
| 20260507213625 | 0 | 315 | 4.8 | 6.4 | 0.00 | 0.51 | 0.00 | 93 | 1016.5 |
| 20260507212704 | 0 | 315 | 4.8 | 8.0 | 0.00 | 0.51 | 0.00 | 93 | 1016.4 |
| 20260507211804 | 0 | 316 | 1.6 | 8.0 | 0.00 | 0.51 | 0.00 | 93 | 1016.3 |
| 20260507210924 | 0 | 0 | 0.0 | 0.0 | 0.00 | 0.51 | 0.00 | 93 | 1016.2 |
| 20260507210006 | 0 | 0 | 0.0 | 0.0 | 0.03 | 0.51 | 0.00 | 93 | 1016.1 |
| 20260507205404 | 0 | 0 | 0.0 | 0.0 | 0.03 | 0.51 | 0.51 | 93 | 1016.1 |
| 20260507204504 | 0 | 300 | 1.6 | 3.2 | 0.08 | 0.51 | 0.51 | 93 | 1016.0 |
| 20260507203625 | 0 | 300 | 3.2 | 4.8 | 0.13 | 0.51 | 0.51 | 92 | 1016.0 |
| 20260507202703 | 0 | 300 | 3.2 | 4.8 | 0.18 | 0.51 | 0.51 | 92 | 1015.9 |
| 20260507201804 | 0 | 304 | 3.2 | 6.4 | 0.23 | 0.51 | 0.51 | 92 | 1015.8 |
| 20260507200904 | 0 | 334 | 1.6 | 4.8 | 0.25 | 0.51 | 0.51 | 92 | 1015.8 |
| 20260507200004 | 0 | 334 | 3.2 | 4.8 | 0.23 | 0.48 | 0.51 | 92 | 1015.7 |
| 20260507195403 | 0 | 334 | 4.8 | 8.0 | 0.25 | 0.48 | 0.48 | 92 | 1015.7 |
| 20260507194504 | 0 | 335 | 6.4 | 9.7 | 0.20 | 0.43 | 0.43 | 92 | 1015.7 |
| 20260507193603 | 0 | 334 | 8.0 | 14.5 | 0.15 | 0.38 | 0.38 | 92 | 1015.6 |
| 20260507192704 | 0 | 330 | 8.0 | 14.5 | 0.13 | 0.33 | 0.33 | 92 | 1015.5 |
| 20260507191803 | 1 | 327 | 8.0 | 12.9 | 0.08 | 0.28 | 0.28 | 92 | 1015.4 |
| 20260507190904 | 1 | 328 | 8.0 | 14.5 | 0.08 | 0.25 | 0.25 | 92 | 1015.4 |
| 20260507190025 | 1 | 333 | 11.3 | 16.1 | 0.10 | 0.25 | 0.25 | 92 | 1015.4 |
| 20260507185403 | 0 | 331 | 11.3 | 16.1 | 0.10 | 0.23 | 0.23 | 92 | 1015.3 |
| 20260507184504 | 0 | 332 | 11.3 | 17.7 | 0.15 | 0.23 | 0.23 | 92 | 1015.3 |
| 20260507183603 | 0 | 326 | 11.3 | 16.1 | 0.15 | 0.23 | 0.23 | 91 | 1015.2 |
| 20260507182703 | 0 | 322 | 9.7 | 16.1 | 0.13 | 0.20 | 0.20 | 91 | 1015.2 |
| 20260507181803 | 0 | 320 | 11.3 | 19.3 | 0.13 | 0.20 | 0.20 | 90 | 1015.1 |
| 20260507180903 | 0 | 319 | 12.9 | 17.7 | 0.13 | 0.18 | 0.18 | 90 | 1015.2 |
| 20260507180025 | 1 | 315 | 9.7 | 16.1 | 0.10 | 0.15 | 0.15 | 89 | 1015.2 |
| 20260507175404 | 1 | 308 | 8.0 | 16.1 | 0.08 | 0.13 | 0.13 | 89 | 1015.2 |
| 20260507174503 | 1 | 297 | 6.4 | 12.9 | 0.03 | 0.08 | 0.08 | 87 | 1015.1 |
| 20260507173604 | 2 | 276 | 4.8 | 14.5 | 0.03 | 0.08 | 0.08 | 84 | 1015.1 |
| 20260507172703 | 3 | 240 | 3.2 | 12.9 | 0.03 | 0.08 | 0.08 | 83 | 1015.0 |
| 20260507171825 | 4 | 213 | 4.8 | 14.5 | 0.03 | 0.08 | 0.08 | 81 | 1014.9 |
| 20260507170903 | 5 | 295 | 1.6 | 6.4 | 0.00 | 0.05 | 0.05 | 80 | 1014.6 |